Theta_e
289 289 288 288 288 287 287 286 286 285 285 285 284 284 285 285 285 284 284 283 282 281 281 281 281 280 280 280 279 279 279 279 279 279 279 278 278 278 278 278 278 277 278
289 288 288 287 287 287 286 286 285 285 285 284 284 285 285 285 285 284 283 282 281 281 280 280 280 279 279 279 278 278 277 277 277 277 277 277 277 277 277 276 276 277 277
288 288 287 287 286 286 286 286 285 285 285 284 285 285 285 284 283 282 282 281 281 280 280 280 279 279 278 278 277 277 276 276 276 276 276 276 276 275 275 276 276 276 276
288 287 287 286 286 286 286 285 285 285 285 284 285 285 284 283 282 282 281 281 280 280 279 279 278 278 277 276 276 275 275 275 275 275 275 275 274 275 275 275 275 275 275
288 287 287 286 286 286 286 285 285 285 284 284 285 284 283 283 282 281 281 280 280 279 279 278 278 277 276 276 276 276 275 275 274 274 274 274 275 275 275 275 275 275 275
288 287 287 286 286 286 286 285 285 284 284 284 284 283 283 283 282 282 281 280 279 279 278 277 277 276 276 275 276 276 276 276 276 275 275 275 276 276 275 275 275 276 276
288 287 287 286 286 286 285 285 284 284 284 283 283 283 283 282 281 280 280 279 279 278 277 276 276 275 275 274 274 274 275 275 276 276 276 276 275 275 275 275 276 276 276
289 288 287 286 286 286 285 285 284 284 283 283 283 282 282 282 281 280 279 278 278 277 276 275 275 275 274 274 274 275 275 275 275 276 276 277 277 277 277 277 277 277 276
289 288 287 286 286 285 285 284 284 283 283 282 282 282 282 281 280 278 277 277 276 276 275 275 275 275 275 275 276 276 276 276 275 274 274 275 275 275 274 274 274 275 275
289 289 288 287 286 285 285 284 284 283 283 282 282 281 281 280 278 277 276 276 275 275 274 274 275 276 276 277 277 277 275 274 273 273 273 272 270 270 272 272 273 274 274
291 290 289 288 287 286 285 284 283 283 282 281 280 280 279 278 278 277 275 275 275 274 274 274 274 275 276 276 277 276 274 274 273 272 270 269 268 269 269 270 270 271 271
290 289 288 288 287 286 285 284 283 282 281 280 278 278 277 277 277 276 275 275 275 274 274 274 274 274 275 276 275 273 273 273 271 268 268 267 267 268 269 268 268 269 269
288 288 287 286 286 285 284 283 281 280 279 278 277 276 277 276 276 275 274 274 275 275 275 274 275 276 275 273 272 271 271 269 268 267 267 267 268 268 267 267 267 268 268
287 286 286 285 284 283 282 281 280 279 277 276 275 275 275 275 275 274 274 273 274 274 274 274 274 274 273 271 270 269 268 267 267 267 267 267 267 266 267 267 267 267 268
286 285 284 283 282 281 279 279 278 277 277 277 276 275 275 274 274 274 273 272 273 273 274 273 273 272 271 270 268 267 267 267 267 267 267 266 266 266 266 266 266 267 267
285 284 283 281 280 279 278 276 275 275 274 275 275 274 274 273 273 274 275 275 276 276 275 273 273 271 270 268 267 266 266 266 266 266 265 265 265 265 265 265 266 267 267
283 283 281 280 279 277 275 275 274 275 275 275 275 275 276 276 275 275 275 275 276 275 273 272 271 270 268 267 266 265 265 265 265 264 264 264 264 264 264 265 266 266 267
280 279 279 278 276 275 275 274 273 272 272 272 272 272 272 272 273 273 273 273 273 273 271 271 270 268 267 266 265 265 264 264 264 263 263 263 264 263 264 264 265 266 266
277 276 275 275 274 273 272 272 271 270 269 269 268 268 269 269 270 271 272 272 271 271 270 269 269 267 266 265 264 264 263 263 263 262 262 263 263 263 263 264 265 264 266
273 273 272 272 271 270 270 269 268 268 267 266 266 266 266 265 265 266 266 266 267 268 268 267 266 265 264 264 263 263 263 262 262 262 262 262 263 262 262 263 263 264 266
271 270 269 269 268 268 267 266 266 265 265 265 264 264 265 267 266 266 265 264 265 265 265 265 264 263 263 263 263 262 262 262 261 261 261 262 262 262 263 263 263 264 266
269 268 267 266 266 265 264 264 264 263 263 263 263 262 264 264 264 263 263 264 265 265 264 264 263 262 262 262 262 261 261 261 261 262 261 261 262 263 263 263 264 265 265
266 265 265 264 264 263 263 263 263 262 262 261 261 261 261 261 261 261 261 262 262 263 263 262 262 262 262 262 261 261 260 261 261 261 260 261 262 263 263 263 264 265 265
264 263 263 263 262 262 262 261 261 261 261 261 261 260 260 260 260 260 260 261 261 261 261 261 261 261 261 261 261 261 261 261 260 261 260 260 261 263 264 264 265 265 265
263 263 263 262 262 261 261 261 260 260 260 260 260 260 260 260 260 260 260 260 260 260 260 260 261 260 260 260 261 261 261 260 260 260 261 261 262 264 264 265 266 266 266
262 262 261 261 261 261 260 260 260 260 260 260 260 260 260 260 260 260 260 260 260 260 260 260 260 260 260 260 260 260 260 260 261 261 261 261 262 263 264 266 266 266 266
Wind_Speed
24 23 22 21 22 21 20 18 17 16 14 12 11 9 8 6 4 3 4 5 6 8 9 10 11 11 13 14 14 13 13 13 17 37 26 29 36 33 39 39 34 35 32
25 24 24 23 23 21 20 19 18 17 15 13 11 9 7 4 2 1 2 5 7 9 10 11 12 13 15 15 15 15 17 17 18 27 30 29 28 28 30 36 36 31 30
27 25 25 25 24 22 21 20 19 17 16 14 12 10 8 5 3 2 3 5 8 10 12 13 15 16 18 17 17 18 20 19 20 23 31 27 28 27 30 28 30 32 28
28 27 28 27 25 23 22 22 21 19 18 16 13 11 8 7 5 4 5 7 9 12 14 16 17 18 18 18 20 21 17 20 20 21 26 27 27 28 26 27 31 29 32
30 30 29 26 24 24 24 23 22 22 20 16 14 12 10 8 7 7 8 10 12 15 16 17 19 18 16 16 17 20 19 23 24 23 25 26 26 26 26 28 29 32 33
33 32 29 27 27 27 26 26 25 23 21 18 16 14 13 11 11 12 11 12 14 16 19 19 19 20 21 15 15 17 18 22 26 24 26 25 29 29 30 29 31 30 27
33 32 30 30 30 30 29 28 27 26 23 21 19 17 15 14 14 14 14 15 16 18 19 20 22 20 18 20 19 18 21 22 23 29 31 30 33 33 36 36 33 34 34
33 32 30 30 30 31 31 30 29 26 25 23 21 20 18 18 17 16 15 16 18 19 19 20 21 22 20 17 20 24 26 24 27 28 29 31 31 34 35 34 36 37 37
34 32 31 32 33 32 32 32 30 28 27 26 25 23 23 21 19 16 15 18 19 21 20 20 21 21 19 16 20 24 28 25 23 29 32 32 33 35 35 35 31 27 27
32 31 30 31 32 33 33 32 30 30 29 27 26 26 24 24 21 19 16 19 22 22 20 19 17 18 18 18 20 22 23 29 34 29 32 39 31 28 25 24 27 26 25
26 24 24 26 30 31 31 30 30 29 29 28 28 27 26 25 21 19 17 19 23 22 20 19 18 17 18 19 18 20 27 28 28 32 33 30 29 25 24 23 23 25 27
20 21 21 22 24 26 27 27 27 28 28 29 27 27 27 25 22 21 19 19 19 21 23 22 20 18 18 17 20 22 24 23 26 25 26 26 24 24 25 27 29 28 26
20 21 22 22 23 24 25 26 26 26 28 29 28 29 28 24 21 18 16 17 19 22 24 22 18 18 14 17 22 19 19 21 20 21 24 22 22 27 28 27 28 27 26
22 22 21 22 23 23 23 25 27 28 28 27 26 26 22 19 20 19 19 19 20 20 20 20 21 20 16 15 21 18 17 18 17 21 21 22 27 28 27 25 26 27 27
20 19 20 20 22 22 22 23 24 24 24 25 25 24 21 21 21 17 17 18 17 17 18 22 21 18 19 20 19 17 17 16 18 19 21 27 26 23 26 26 25 26 24
18 18 19 19 20 20 20 20 15 14 16 16 15 15 17 18 15 15 17 19 21 21 23 19 21 20 19 20 18 19 18 18 17 19 23 22 21 23 25 27 24 23 24
19 19 18 18 20 20 18 16 16 13 14 16 16 16 17 19 18 20 21 21 22 22 22 22 22 21 21 19 18 18 20 20 19 20 21 22 24 25 23 25 24 23 24
14 13 15 16 15 12 12 13 13 12 13 14 14 12 14 16 19 20 20 20 23 21 23 23 23 22 20 19 17 18 21 22 22 21 22 24 24 22 24 24 24 24 25
13 14 12 11 11 11 11 10 11 10 12 14 15 15 16 16 18 19 21 23 23 24 25 24 24 22 20 20 19 19 20 22 23 22 22 23 24 22 23 24 25 27 26
11 11 11 10 9 9 8 8 9 10 11 12 14 15 16 18 20 21 21 24 28 28 26 26 25 22 21 20 19 19 21 21 22 21 21 23 24 23 22 25 25 25 26
10 10 8 7 6 6 6 7 7 9 11 13 15 15 14 19 22 23 22 21 24 26 24 23 22 22 21 21 20 20 20 21 22 21 21 22 23 24 27 27 27 24 26
8 8 7 6 4 4 4 5 6 8 10 13 15 16 15 18 21 22 19 19 19 20 22 23 23 23 22 22 21 20 21 22 22 19 21 22 23 25 26 27 28 23 25
7 7 6 4 3 3 3 5 6 8 10 12 14 16 18 19 21 22 24 24 24 25 25 25 24 24 22 22 20 20 21 22 20 20 21 22 23 24 25 26 25 24 23
7 6 5 3 1 2 4 7 8 10 12 14 15 16 18 19 20 21 22 24 24 23 24 24 24 24 23 22 21 21 21 21 20 20 20 22 24 24 25 25 21 25 27
5 4 2 2 3 5 7 9 10 11 12 13 15 17 19 20 20 21 22 22 23 24 24 23 23 22 22 22 21 21 21 21 21 21 20 20 21 22 23 24 25 24 23
3 1 1 3 5 6 8 10 12 13 15 15 16 18 19 19 20 22 22 23 23 24 24 23 22 22 22 22 21 20 20 19 20 17 17 19 20 22 22 23 24 21 18
Wind_Direction
168 169 168 169 169 166 165 164 167 163 161 154 150 139 121 102 83 44 10 352 339 341 333 328 322 321 318 320 320 317 309 303 293 299 303 308 312 317 319 319 318 317 315
175 175 176 176 173 171 171 172 173 172 171 168 165 155 147 150 152 19 345 337 332 327 320 314 312 313 310 312 313 308 308 305 297 294 303 310 312 315 312 313 317 316 313
180 183 183 182 180 179 178 180 180 180 183 182 182 178 183 187 210 258 302 310 323 317 312 306 306 305 304 308 307 304 303 303 300 294 297 307 309 315 315 315 312 312 313
186 189 190 190 188 186 187 187 188 192 193 194 195 198 205 214 237 267 285 303 304 302 300 299 298 297 297 298 297 303 305 305 302 298 299 305 308 313 311 311 312 313 311
192 195 199 195 193 192 196 195 196 200 203 205 208 212 221 235 251 261 275 288 292 295 297 295 294 293 289 290 293 298 300 300 298 295 297 301 303 309 308 309 303 306 303
197 201 200 198 197 199 203 204 204 204 208 213 218 222 230 243 255 269 276 280 290 293 295 297 293 288 289 286 283 286 288 294 295 294 292 292 297 299 301 299 297 298 297
200 204 202 204 203 203 209 210 209 211 215 220 224 231 238 245 255 264 273 278 284 289 290 289 288 288 286 287 291 287 289 290 289 294 293 289 291 292 293 291 289 287 287
202 206 205 207 208 210 212 215 216 218 223 228 232 239 244 249 252 257 262 271 282 285 284 281 282 285 287 290 292 293 293 292 294 294 290 296 300 303 299 299 299 298 295
203 208 210 211 211 212 215 218 221 223 227 233 239 244 247 250 252 251 254 271 276 279 279 278 279 282 287 286 286 294 300 301 301 300 298 298 300 300 300 304 301 301 296
206 212 214 215 218 219 222 223 225 228 234 237 242 245 249 253 251 254 256 267 271 278 282 283 278 278 285 286 290 298 304 309 313 311 304 306 311 312 309 303 301 296 296
208 211 216 219 221 226 228 229 230 231 234 238 242 246 250 253 255 257 254 258 268 276 281 282 280 283 287 288 292 301 308 308 305 306 309 315 317 316 312 309 304 304 306
201 204 209 214 218 222 226 229 229 230 232 236 239 244 247 252 259 260 258 244 253 262 270 275 280 284 285 286 295 302 302 301 300 310 314 314 312 313 313 310 307 303 298
192 200 207 212 217 221 221 222 222 225 228 231 235 243 250 256 261 256 252 244 245 255 263 271 278 282 282 287 297 301 298 296 308 306 308 307 309 310 312 313 313 310 306
200 204 209 213 216 220 223 225 225 225 226 230 237 245 253 259 261 260 259 251 250 254 258 265 268 274 273 288 297 294 294 303 301 300 301 304 311 317 315 316 314 314 312
210 212 215 219 223 225 228 231 232 237 242 244 248 252 252 252 258 265 263 260 262 264 270 266 255 261 283 297 298 290 294 297 296 303 304 309 311 311 311 316 314 311 306
218 218 222 224 226 231 232 231 231 240 240 237 242 250 253 256 255 250 255 259 262 257 265 247 263 273 284 293 287 289 295 297 299 302 307 308 303 309 310 313 314 312 306
232 230 228 229 230 226 228 232 233 237 237 240 245 251 255 266 257 261 261 262 262 263 245 253 262 271 280 278 276 280 287 295 300 301 308 306 307 310 309 310 311 316 312
223 224 225 220 223 225 226 231 235 235 234 244 249 261 266 266 266 265 263 263 262 245 242 254 262 272 272 269 270 275 285 295 300 305 308 309 315 307 307 309 313 315 311
194 185 192 189 197 201 210 221 235 248 259 269 279 279 276 276 276 272 269 264 260 256 256 255 263 267 267 268 271 278 284 290 296 302 307 310 313 311 304 307 311 311 309
168 169 177 183 186 196 211 229 246 260 273 281 286 290 295 292 287 282 275 267 265 266 262 263 266 267 265 268 275 281 286 290 294 302 307 309 313 315 303 308 309 309 311
147 150 162 170 187 206 221 233 248 260 271 280 287 292 292 290 289 285 281 278 271 268 267 268 268 268 269 273 279 281 283 288 292 300 305 309 311 312 319 320 313 308 314
141 150 162 170 188 207 228 250 265 276 285 289 292 293 293 284 281 284 284 280 278 258 268 274 272 271 273 276 280 279 282 286 291 302 306 306 307 311 318 321 322 311 318
147 145 140 147 175 205 249 273 284 288 290 291 293 294 296 293 292 291 288 285 279 276 276 276 276 276 276 278 279 278 279 283 292 297 298 302 304 308 314 316 318 313 319
131 132 141 148 195 278 280 274 273 277 281 285 292 300 303 299 296 293 293 291 291 285 281 279 278 279 282 281 281 279 282 285 289 287 292 294 299 301 308 315 305 320 326
121 126 131 181 231 255 266 271 279 285 289 296 302 302 299 297 294 295 295 293 292 289 288 286 284 284 283 284 284 284 285 285 284 284 284 288 292 296 304 305 307 319 326
125 143 228 254 268 278 282 286 287 288 291 299 300 298 294 294 296 293 293 292 292 293 293 291 290 288 289 288 287 287 285 285 281 280 285 290 293 292 288 298 308 309 317